Time,TemperatureF,DewpointF,PressureIn,WindDirection,WindDirectionDegrees,WindSpeedMPH,WindSpeedGustMPH,Humidity,HourlyPrecipIn,Conditions,Clouds,dailyrainin,SoftwareType,DateUTC
2013-03-30 00:02:00,34.0,29.0,30.18,NNE,17,3.0,-999.0,82,-99.99,,,-99.99,,2013-03-30 04:02:00,
2013-03-30 00:13:00,34.0,29.0,30.18,NNE,17,3.0,-999.0,82,-99.99,,,-99.99,,2013-03-30 04:13:00,
2013-03-30 00:23:00,34.0,29.0,30.18,NNE,17,0.0,-999.0,81,-99.99,,,-99.99,,2013-03-30 04:23:00,
2013-03-30 00:33:00,33.0,28.0,30.18,NNE,17,0.0,-999.0,82,-99.99,,,-99.99,,2013-03-30 04:33:00,
2013-03-30 00:43:00,33.0,28.0,30.18,NNE,17,0.0,-999.0,82,-99.99,,,-99.99,,2013-03-30 04:43:00,
2013-03-30 00:52:00,33.0,28.0,30.18,NNE,17,0.0,-999.0,82,-99.99,,,-99.99,,2013-03-30 04:52:00,
2013-03-30 01:02:00,32.0,28.0,30.18,NNE,17,0.0,-999.0,85,-99.99,,,-99.99,,2013-03-30 05:02:00,
2013-03-30 01:12:00,32.0,28.0,30.18,NNE,17,0.0,-999.0,85,-99.99,,,-99.99,,2013-03-30 05:12:00,
2013-03-30 01:22:00,31.0,28.0,30.18,NNE,17,0.0,-999.0,87,-99.99,,,-99.99,,2013-03-30 05:22:00,
2013-03-30 01:32:00,31.0,28.0,30.18,NNE,17,0.0,-999.0,88,-99.99,,,-99.99,,2013-03-30 05:32:00,
2013-03-30 01:42:00,31.0,28.0,30.18,NNE,17,0.0,-999.0,88,-99.99,,,-99.99,,2013-03-30 05:42:00,
2013-03-30 01:52:00,31.0,27.0,30.18,NNE,17,0.0,-999.0,85,-99.99,,,-99.99,,2013-03-30 05:52:00,
2013-03-30 02:02:00,31.0,26.0,30.18,NNE,17,0.0,-999.0,82,-99.99,,,-99.99,,2013-03-30 06:02:00,
2013-03-30 02:12:00,31.0,26.0,30.18,NNE,17,0.0,-999.0,82,-99.99,,,-99.99,,2013-03-30 06:12:00,
2013-03-30 02:23:00,31.0,27.0,30.18,NNE,17,0.0,-999.0,84,-99.99,,,-99.99,,2013-03-30 06:23:00,
2013-03-30 02:32:00,30.0,26.0,30.18,NNE,17,0.0,-999.0,84,-99.99,,,-99.99,,2013-03-30 06:32:00,
2013-03-30 02:42:00,30.0,26.0,30.18,NNE,17,0.0,-999.0,84,-99.99,,,-99.99,,2013-03-30 06:42:00,
2013-03-30 02:52:00,30.0,26.0,30.18,NNE,17,0.0,-999.0,85,-99.99,,,-99.99,,2013-03-30 06:52:00,
2013-03-30 03:02:00,30.0,26.0,30.18,NNE,17,0.0,-999.0,86,-99.99,,,-99.99,,2013-03-30 07:02:00,
2013-03-30 03:12:00,30.0,26.0,30.18,NNE,17,0.0,-999.0,86,-99.99,,,-99.99,,2013-03-30 07:12:00,
2013-03-30 03:22:00,30.0,25.0,30.18,NNE,17,0.0,-999.0,83,-99.99,,,-99.99,,2013-03-30 07:22:00,
2013-03-30 03:32:00,30.0,26.0,30.17,NNE,17,0.0,-999.0,84,-99.99,,,-99.99,,2013-03-30 07:32:00,
2013-03-30 03:42:00,30.0,26.0,30.17,NNE,17,0.0,-999.0,84,-99.99,,,-99.99,,2013-03-30 07:42:00,
2013-03-30 03:52:00,29.0,25.0,30.17,NNE,17,0.0,-999.0,84,-99.99,,,-99.99,,2013-03-30 07:52:00,
2013-03-30 04:02:00,29.0,25.0,30.17,NNE,17,0.0,-999.0,83,-99.99,,,-99.99,,2013-03-30 08:02:00,
2013-03-30 04:12:00,29.0,25.0,30.17,NNE,17,0.0,-999.0,83,-99.99,,,-99.99,,2013-03-30 08:12:00,
2013-03-30 04:22:00,29.0,24.0,30.17,NNE,17,0.0,-999.0,80,-99.99,,,-99.99,,2013-03-30 08:22:00,
2013-03-30 04:32:00,29.0,24.0,30.17,NNE,17,0.0,-999.0,80,-99.99,,,-99.99,,2013-03-30 08:32:00,
2013-03-30 04:42:00,29.0,24.0,30.17,NNE,17,0.0,-999.0,80,-99.99,,,-99.99,,2013-03-30 08:42:00,
2013-03-30 04:52:00,29.0,25.0,30.16,NNE,17,0.0,-999.0,84,-99.99,,,-99.99,,2013-03-30 08:52:00,
2013-03-30 05:02:00,28.0,24.0,30.16,NNE,17,0.0,-999.0,85,-99.99,,,-99.99,,2013-03-30 09:02:00,
2013-03-30 05:12:00,28.0,24.0,30.16,NNE,17,0.0,-999.0,85,-99.99,,,-99.99,,2013-03-30 09:12:00,
2013-03-30 05:22:00,28.0,24.0,30.16,NNE,17,0.0,-999.0,86,-99.99,,,-99.99,,2013-03-30 09:22:00,
2013-03-30 05:33:00,28.0,24.0,30.16,NNE,17,0.0,-999.0,86,-99.99,,,-99.99,,2013-03-30 09:33:00,
2013-03-30 05:43:00,28.0,24.0,30.16,NNE,17,0.0,-999.0,86,-99.99,,,-99.99,,2013-03-30 09:43:00,
2013-03-30 05:53:00,28.0,24.0,30.16,NNE,17,0.0,-999.0,84,-99.99,,,-99.99,,2013-03-30 09:53:00,
2013-03-30 06:03:00,28.0,25.0,30.16,NNE,17,0.0,-999.0,87,-99.99,,,-99.99,,2013-03-30 10:03:00,
2013-03-30 06:13:00,28.0,25.0,30.16,NNE,17,0.0,-999.0,87,-99.99,,,-99.99,,2013-03-30 10:13:00,
2013-03-30 06:23:00,28.0,25.0,30.15,NNE,17,0.0,-999.0,87,-99.99,,,-99.99,,2013-03-30 10:23:00,
2013-03-30 06:33:00,27.0,24.0,30.15,NNE,17,0.0,-999.0,87,-99.99,,,-99.99,,2013-03-30 10:33:00,
2013-03-30 06:42:00,27.0,24.0,30.15,NNE,17,0.0,-999.0,87,-99.99,,,-99.99,,2013-03-30 10:42:00,
2013-03-30 06:52:00,27.0,24.0,30.16,NNE,17,0.0,-999.0,89,-99.99,,,-99.99,,2013-03-30 10:52:00,
2013-03-30 07:04:00,27.0,24.0,30.16,NNE,17,0.0,-999.0,89,-99.99,,,-99.99,,2013-03-30 11:04:00,
2013-03-30 07:12:00,27.0,24.0,30.16,NNE,17,0.0,-999.0,89,-99.99,,,-99.99,,2013-03-30 11:12:00,
2013-03-30 07:23:00,27.0,24.0,30.16,NNE,17,0.0,-999.0,89,-99.99,,,-99.99,,2013-03-30 11:23:00,
2013-03-30 07:33:00,26.0,23.0,30.16,NNE,17,0.0,-999.0,89,-99.99,,,-99.99,,2013-03-30 11:33:00,
2013-03-30 07:42:00,26.0,23.0,30.16,NNE,17,0.0,-999.0,89,-99.99,,,-99.99,,2013-03-30 11:42:00,
2013-03-30 07:52:00,26.0,23.0,30.16,NNE,17,0.0,-999.0,90,-99.99,,,-99.99,,2013-03-30 11:52:00,
2013-03-30 08:02:00,26.0,23.0,30.16,NNE,17,0.0,-999.0,90,-99.99,,,-99.99,,2013-03-30 12:02:00,
2013-03-30 08:13:00,26.0,23.0,30.16,NNE,17,0.0,-999.0,90,-99.99,,,-99.99,,2013-03-30 12:13:00,
2013-03-30 08:22:00,26.0,23.0,30.16,NNE,17,0.0,-999.0,90,-99.99,,,-99.99,,2013-03-30 12:22:00,
2013-03-30 08:33:00,27.0,24.0,30.16,NNE,17,0.0,-999.0,89,-99.99,,,-99.99,,2013-03-30 12:33:00,
2013-03-30 08:42:00,27.0,24.0,30.16,NNE,17,0.0,-999.0,89,-99.99,,,-99.99,,2013-03-30 12:42:00,
2013-03-30 08:52:00,30.0,27.0,30.16,NNE,17,0.0,-999.0,87,-99.99,,,-99.99,,2013-03-30 12:52:00,
2013-03-30 09:02:00,30.0,27.0,30.16,NNE,17,0.0,-999.0,87,-99.99,,,-99.99,,2013-03-30 13:02:00,
2013-03-30 09:12:00,30.0,27.0,30.16,NNE,17,0.0,-999.0,87,-99.99,,,-99.99,,2013-03-30 13:12:00,
2013-03-30 09:22:00,32.0,27.0,30.16,NNE,17,0.0,-999.0,82,-99.99,,,-99.99,,2013-03-30 13:22:00,
2013-03-30 09:32:00,34.0,29.0,30.16,NNE,17,0.0,-999.0,81,-99.99,,,-99.99,,2013-03-30 13:32:00,
2013-03-30 09:43:00,34.0,29.0,30.16,NNE,17,0.0,-999.0,81,-99.99,,,-99.99,,2013-03-30 13:43:00,
2013-03-30 09:52:00,35.0,30.0,30.15,East,99,1.0,-999.0,81,-99.99,,,-99.99,,2013-03-30 13:52:00,
2013-03-30 10:03:00,35.0,29.0,30.16,South,182,2.0,-999.0,80,-99.99,,,-99.99,,2013-03-30 14:03:00,
2013-03-30 10:12:00,35.0,29.0,30.16,South,182,2.0,-999.0,80,-99.99,,,-99.99,,2013-03-30 14:12:00,
2013-03-30 10:23:00,36.0,30.0,30.16,SSE,163,2.0,-999.0,79,-99.99,,,-99.99,,2013-03-30 14:23:00,
2013-03-30 10:32:00,37.0,30.0,30.15,South,185,2.0,-999.0,77,-99.99,,,-99.99,,2013-03-30 14:32:00,
2013-03-30 10:42:00,37.0,30.0,30.15,South,185,2.0,-999.0,77,-99.99,,,-99.99,,2013-03-30 14:42:00,
2013-03-30 10:52:00,38.0,30.0,30.15,SSE,165,2.0,-999.0,74,-99.99,,,-99.99,,2013-03-30 14:52:00,
2013-03-30 11:03:00,40.0,31.0,30.14,SSE,165,1.0,-999.0,70,-99.99,,,-99.99,,2013-03-30 15:03:00,
2013-03-30 11:12:00,40.0,31.0,30.14,SSE,165,1.0,-999.0,70,-99.99,,,-99.99,,2013-03-30 15:12:00,
2013-03-30 11:23:00,42.0,32.0,30.13,SSE,159,1.0,-999.0,68,-99.99,,,-99.99,,2013-03-30 15:23:00,
2013-03-30 11:34:00,43.0,31.0,30.12,SSE,151,2.0,-999.0,62,-99.99,,,-99.99,,2013-03-30 15:34:00,
2013-03-30 11:43:00,43.0,31.0,30.12,SSE,151,2.0,-999.0,62,-99.99,,,-99.99,,2013-03-30 15:43:00,
2013-03-30 11:52:00,43.0,31.0,30.12,East,90,1.0,-999.0,63,-99.99,,,-99.99,,2013-03-30 15:52:00,
2013-03-30 12:03:00,43.0,31.0,30.11,NE,52,2.0,-999.0,63,-99.99,,,-99.99,,2013-03-30 16:03:00,
2013-03-30 12:13:00,43.0,30.0,30.11,East,90,4.0,-999.0,59,-99.99,,,-99.99,,2013-03-30 16:13:00,
2013-03-30 12:23:00,43.0,30.0,30.11,East,90,4.0,-999.0,59,-99.99,,,-99.99,,2013-03-30 16:23:00,
2013-03-30 12:33:00,42.0,31.0,30.09,East,81,5.0,-999.0,64,-99.99,,,-99.99,,2013-03-30 16:33:00,
2013-03-30 12:43:00,42.0,31.0,30.09,East,81,5.0,-999.0,64,-99.99,,,-99.99,,2013-03-30 16:43:00,
2013-03-30 12:52:00,42.0,31.0,30.09,NE,53,4.0,-999.0,64,-99.99,,,-99.99,,2013-03-30 16:52:00,
2013-03-30 13:02:00,43.0,30.0,30.08,ENE,66,4.0,-999.0,61,-99.99,,,-99.99,,2013-03-30 17:02:00,
2013-03-30 13:13:00,43.0,30.0,30.08,ENE,66,4.0,-999.0,61,-99.99,,,-99.99,,2013-03-30 17:13:00,
2013-03-30 13:23:00,43.0,32.0,30.08,ESE,105,3.0,-999.0,66,-99.99,,,-99.99,,2013-03-30 17:23:00,
2013-03-30 13:33:00,45.0,33.0,30.07,East,92,3.0,-999.0,62,-99.99,,,-99.99,,2013-03-30 17:33:00,
2013-03-30 13:42:00,45.0,33.0,30.07,East,92,3.0,-999.0,62,-99.99,,,-99.99,,2013-03-30 17:42:00,
2013-03-30 13:52:00,45.0,32.0,30.06,ESE,111,3.0,-999.0,59,-99.99,,,-99.99,,2013-03-30 17:52:00,
2013-03-30 14:03:00,45.0,32.0,30.06,ESE,103,4.0,-999.0,59,-99.99,,,-99.99,,2013-03-30 18:03:00,
2013-03-30 14:13:00,46.0,32.0,30.05,ENE,57,4.0,-999.0,58,-99.99,,,-99.99,,2013-03-30 18:13:00,
2013-03-30 14:22:00,46.0,32.0,30.05,ENE,57,4.0,-999.0,58,-99.99,,,-99.99,,2013-03-30 18:22:00,
2013-03-30 14:33:00,46.0,31.0,30.04,East,97,4.0,-999.0,55,-99.99,,,-99.99,,2013-03-30 18:33:00,
2013-03-30 14:42:00,46.0,31.0,30.04,East,97,4.0,-999.0,55,-99.99,,,-99.99,,2013-03-30 18:42:00,
2013-03-30 14:53:00,49.0,28.0,30.04,South,171,7.0,-999.0,44,-99.99,,,-99.99,,2013-03-30 18:53:00,
2013-03-30 15:03:00,50.0,28.0,30.03,SSE,159,8.0,-999.0,42,-99.99,,,-99.99,,2013-03-30 19:03:00,
2013-03-30 15:13:00,50.0,28.0,30.03,SSE,159,8.0,-999.0,42,-99.99,,,-99.99,,2013-03-30 19:13:00,
2013-03-30 15:22:00,51.0,28.0,30.02,South,171,7.0,-999.0,41,-99.99,,,-99.99,,2013-03-30 19:22:00,
2013-03-30 15:32:00,51.0,27.0,30.01,SW,225,9.0,-999.0,39,-99.99,,,-99.99,,2013-03-30 19:32:00,
2013-03-30 15:42:00,51.0,27.0,30.01,SW,225,9.0,-999.0,39,-99.99,,,-99.99,,2013-03-30 19:42:00,
2013-03-30 15:52:00,51.0,26.0,30.00,South,172,9.0,-999.0,38,-99.99,,,-99.99,,2013-03-30 19:52:00,
2013-03-30 16:02:00,52.0,28.0,29.99,South,173,8.0,-999.0,40,-99.99,,,-99.99,,2013-03-30 20:02:00,
2013-03-30 16:12:00,52.0,28.0,29.99,South,173,8.0,-999.0,40,-99.99,,,-99.99,,2013-03-30 20:12:00,
2013-03-30 16:22:00,52.0,27.0,29.99,SE,141,9.0,-999.0,37,-99.99,,,-99.99,,2013-03-30 20:22:00,
2013-03-30 16:33:00,52.0,25.0,29.98,SSW,212,8.0,-999.0,35,-99.99,,,-99.99,,2013-03-30 20:33:00,
2013-03-30 16:43:00,52.0,25.0,29.98,SSW,212,8.0,-999.0,35,-99.99,,,-99.99,,2013-03-30 20:43:00,
2013-03-30 16:52:00,53.0,24.0,29.97,South,177,9.0,-999.0,32,-99.99,,,-99.99,,2013-03-30 20:52:00,
2013-03-30 17:03:00,53.0,25.0,29.96,SSW,209,8.0,-999.0,34,-99.99,,,-99.99,,2013-03-30 21:03:00,
2013-03-30 17:13:00,53.0,25.0,29.96,SSW,209,8.0,-999.0,34,-99.99,,,-99.99,,2013-03-30 21:13:00,
2013-03-30 17:23:00,53.0,26.0,29.96,SW,217,9.0,-999.0,35,-99.99,,,-99.99,,2013-03-30 21:23:00,
2013-03-30 17:34:00,53.0,25.0,29.95,SW,225,8.0,-999.0,33,-99.99,,,-99.99,,2013-03-30 21:34:00,
2013-03-30 17:43:00,53.0,25.0,29.95,SW,225,8.0,-999.0,33,-99.99,,,-99.99,,2013-03-30 21:43:00,
2013-03-30 17:53:00,52.0,24.0,29.95,SSW,211,10.0,-999.0,33,-99.99,,,-99.99,,2013-03-30 21:53:00,
2013-03-30 18:03:00,52.0,25.0,29.94,SSW,200,9.0,-999.0,34,-99.99,,,-99.99,,2013-03-30 22:03:00,
2013-03-30 18:13:00,52.0,25.0,29.94,SSW,200,9.0,-999.0,34,-99.99,,,-99.99,,2013-03-30 22:13:00,
2013-03-30 18:23:00,52.0,25.0,29.94,SW,236,8.0,-999.0,35,-99.99,,,-99.99,,2013-03-30 22:23:00,
2013-03-30 18:33:00,51.0,24.0,29.93,SW,225,10.0,-999.0,34,-99.99,,,-99.99,,2013-03-30 22:33:00,
2013-03-30 18:43:00,51.0,24.0,29.93,SW,225,10.0,-999.0,34,-99.99,,,-99.99,,2013-03-30 22:43:00,
2013-03-30 18:53:00,51.0,24.0,29.93,SW,229,8.0,-999.0,35,-99.99,,,-99.99,,2013-03-30 22:53:00,
2013-03-30 19:03:00,51.0,25.0,29.93,SSW,212,7.0,-999.0,36,-99.99,,,-99.99,,2013-03-30 23:03:00,
2013-03-30 19:13:00,51.0,25.0,29.93,SSW,212,7.0,-999.0,36,-99.99,,,-99.99,,2013-03-30 23:13:00,
2013-03-30 19:22:00,51.0,26.0,29.92,SW,220,7.0,-999.0,37,-99.99,,,-99.99,,2013-03-30 23:22:00,
2013-03-30 19:33:00,50.0,25.0,29.92,South,181,6.0,-999.0,38,-99.99,,,-99.99,,2013-03-30 23:33:00,
2013-03-30 19:42:00,50.0,25.0,29.92,South,181,6.0,-999.0,38,-99.99,,,-99.99,,2013-03-30 23:42:00,
2013-03-30 19:52:00,50.0,27.0,29.91,SW,225,5.0,-999.0,40,-99.99,,,-99.99,,2013-03-30 23:52:00,
2013-03-30 20:03:00,49.0,26.0,29.91,SW,219,3.0,-999.0,41,-99.99,,,-99.99,,2013-03-31 00:03:00,
2013-03-30 20:12:00,49.0,26.0,29.91,SW,219,3.0,-999.0,41,-99.99,,,-99.99,,2013-03-31 00:12:00,
2013-03-30 20:22:00,49.0,26.0,29.90,SSE,167,2.0,-999.0,41,-99.99,,,-99.99,,2013-03-31 00:22:00,
2013-03-30 20:32:00,48.0,27.0,29.90,South,181,1.0,-999.0,44,-99.99,,,-99.99,,2013-03-31 00:32:00,
2013-03-30 20:43:00,48.0,27.0,29.90,South,181,1.0,-999.0,44,-99.99,,,-99.99,,2013-03-31 00:43:00,
2013-03-30 20:52:00,47.0,28.0,29.89,South,181,0.0,-999.0,47,-99.99,,,-99.99,,2013-03-31 00:52:00,
2013-03-30 21:02:00,46.0,29.0,29.88,South,181,0.0,-999.0,51,-99.99,,,-99.99,,2013-03-31 01:02:00,
2013-03-30 21:12:00,46.0,29.0,29.88,South,181,0.0,-999.0,51,-99.99,,,-99.99,,2013-03-31 01:12:00,
2013-03-30 21:22:00,46.0,30.0,29.88,South,181,0.0,-999.0,53,-99.99,,,-99.99,,2013-03-31 01:22:00,
2013-03-30 21:32:00,45.0,30.0,29.88,South,181,0.0,-999.0,55,-99.99,,,-99.99,,2013-03-31 01:32:00,
2013-03-30 21:43:00,45.0,30.0,29.88,South,181,0.0,-999.0,55,-99.99,,,-99.99,,2013-03-31 01:43:00,
2013-03-30 21:52:00,44.0,30.0,29.88,South,181,0.0,-999.0,58,-99.99,,,-99.99,,2013-03-31 01:52:00,
2013-03-30 22:02:00,43.0,29.0,29.88,South,181,0.0,-999.0,58,-99.99,,,-99.99,,2013-03-31 02:02:00,
2013-03-30 22:13:00,43.0,29.0,29.88,South,181,0.0,-999.0,58,-99.99,,,-99.99,,2013-03-31 02:13:00,
2013-03-30 22:22:00,43.0,30.0,29.88,South,181,0.0,-999.0,60,-99.99,,,-99.99,,2013-03-31 02:22:00,
2013-03-30 22:32:00,43.0,30.0,29.87,South,181,0.0,-999.0,59,-99.99,,,-99.99,,2013-03-31 02:32:00,
2013-03-30 22:43:00,43.0,30.0,29.87,South,181,0.0,-999.0,59,-99.99,,,-99.99,,2013-03-31 02:43:00,
2013-03-30 22:52:00,45.0,29.0,29.87,South,169,3.0,-999.0,53,-99.99,,,-99.99,,2013-03-31 02:52:00,
2013-03-30 23:02:00,46.0,28.0,29.86,South,187,5.0,-999.0,49,-99.99,,,-99.99,,2013-03-31 03:02:00,
2013-03-30 23:13:00,46.0,28.0,29.86,South,187,5.0,-999.0,49,-99.99,,,-99.99,,2013-03-31 03:13:00,
2013-03-30 23:22:00,47.0,29.0,29.86,SSW,201,5.0,-999.0,50,-99.99,,,-99.99,,2013-03-31 03:22:00,
2013-03-30 23:33:00,47.0,30.0,29.85,South,172,5.0,-999.0,51,-99.99,,,-99.99,,2013-03-31 03:33:00,
2013-03-30 23:43:00,47.0,30.0,29.85,South,172,5.0,-999.0,51,-99.99,,,-99.99,,2013-03-31 03:43:00,
2013-03-30 23:53:00,47.0,30.0,29.85,South,184,5.0,-999.0,51,-99.99,,,-99.99,,2013-03-31 03:53:00,